This is the latest recevied weather packets stored in our database for station/object SR9WXP. If no packets are shown the sender has not sent any weather packets the latest 10 day(s).
| Time | Temp. | Humidity | Pressure | Rain* | Wind** | Luminosity | Snow |
|---|---|---|---|---|---|---|---|
| 1787497261 | 11.11° C | 31% | 861.6 hPa | - | - | - | - |
| 1787497142 | 11.11° C | 31% | 861.8 hPa | - | - | - | - |
| 1787497022 | 11.11° C | 31% | 861.8 hPa | - | - | - | - |
| 1787496961 | 11.11° C | 31% | 861.8 hPa | - | - | - | - |
| 1787496902 | 11.11° C | 31% | 861.8 hPa | - | - | - | - |
| 1787496783 | 11.67° C | 31% | 861.8 hPa | - | - | - | - |
| 1787496658 | 11.67° C | 31% | 861.7 hPa | - | - | - | - |
| 1787496540 | 12.22° C | 31% | 861.7 hPa | - | - | - | - |
| 1787496419 | 12.22° C | 31% | 861.7 hPa | - | - | - | - |
| 1787496358 | 12.22° C | 31% | 861.7 hPa | - | - | - | - |
| 1787496299 | 11.67° C | 31% | 861.7 hPa | - | - | - | - |
| 1787496179 | 11.67° C | 31% | 861.7 hPa | - | - | - | - |
| 1787496055 | 11.67° C | 31% | 861.7 hPa | - | - | - | - |
| 1787495937 | 11.67° C | 31% | 861.7 hPa | - | - | - | - |
| 1787495817 | 11.67° C | 31% | 861.6 hPa | - | - | - | - |
| 1787495755 | 11.67° C | 31% | 861.7 hPa | - | - | - | - |
| 1787495696 | 11.67° C | 31% | 861.6 hPa | - | - | - | - |
| 1787495577 | 11.11° C | 31% | 861.6 hPa | - | - | - | - |
| 1787495452 | 11.11° C | 31% | 861.7 hPa | - | - | - | - |
| 1787495333 | 10.56° C | 31% | 861.8 hPa | - | - | - | - |
| 1787495214 | 10.56° C | 31% | 861.8 hPa | - | - | - | - |
| 1787495152 | 10.56° C | 31% | 861.8 hPa | - | - | - | - |
| 1787495092 | 10.56° C | 31% | 861.9 hPa | - | - | - | - |
| 1787494972 | 10.56° C | 31% | 861.8 hPa | - | - | - | - |
| 1787494849 | 10.56° C | 31% | 861.8 hPa | - | - | - | - |
* Rain since midnight (hover to see other rain measurements)
** Current wind speed in m/s (hover to see current wind gust speed)